User: anonymous   Login
Location: Hiram
(41.3130°N, 81.1440°W)
Time: 16:05:18
(UTC-04:00)
Language:

Iridium 62 - Orbit

View from above orbital plane
View from above orbital plane
View from above satellite
View from above satellite

Ground track
Ground track

The orbit data is extracted from the following two-line orbital elements,

1 25285U 98021A   17263.37792684  .00000173  00000-0  54590-4 0  9995
2 25285  86.4019 184.1355 0002337  81.4955 278.6505 14.34223311 18664
Epoch (UTC): 20 September 2017 09:04:12
Eccentricity: 0.0002337
inclination: 86.4019°
perigee height: 776 km
apogee height: 779 km
right ascension of ascending node: 184.1355°
argument of perigee: 81.4955°
revolutions per day: 14.34223311
mean anomaly at epoch: 278.6505°
orbit number at epoch: 1866

The dashed part of the orbit path shows where the satellite is in the earth's shadow,  

DLR